Location: Saluda
(35.2377°N, 82.3468°W)
Time: 04:33:57
(UTC+00:00)

Vanguard 2 Rocket - Pass Details

Date: 03 October 2022
Orbit: 555 x 3321 km, 32.9° (Epoch: 05 December)

Event Time Altitude Azimuth Distance (km) Brightness Sun altitude
Rises 01:26:34 0° 213° (SSW) 7,290 11.7 -28.1°
Reaches altitude 10° 01:32:30 10° 204° (SSW) 6,162 11.2 -29.3°
Enters shadow 01:47:04 33° 155° (SSE) 3,872 9.6 -32.1°
Maximum altitude 01:47:54 33° 150° (SSE) 3,808 - -32.2°
Drops below altitude 10° 01:58:48 10° 93° (E) 4,384 - -34.3°
Sets 02:02:07 0° 83° (E) 5,020 - -34.9°
